FW9915 Weather Reports


time (UTC)temp
C
wind
direction
speed
KPH
gust
KPH
rain 1hr
cm
rain 24hr
cm
rain mn
cm
humidity
%
barometer
mb
20260906073539 23 1 16.1 32.2 0.00 0.00 0.00 63 1018.8
20260906072539 23 15 19.3 43.5 0.00 0.00 0.00 65 1018.7
20260906071519 22 9 22.5 54.7 0.00 0.00 0.00 66 1018.4
20260906070539 22 5 22.5 54.7 0.00 0.00 0.00 68 1018.2
20260906065519 22 9 19.3 43.5 0.00 0.00 0.00 68 1018.2
20260906064519 22 4 17.7 27.4 0.00 0.00 0.00 71 1017.9
20260906063519 21 3 20.9 35.4 0.00 0.00 0.00 71 1017.8
20260906062519 21 5 22.5 43.5 0.00 0.00 0.00 73 1017.8
20260906061518 21 3 20.9 32.2 0.00 0.00 0.00 75 1017.6
20260906060518 21 355 19.3 40.2 0.00 0.00 0.00 77 1017.6
20260906055519 21 349 17.7 32.2 0.00 0.00 0.00 78 1017.5
20260906054519 21 354 17.7 27.4 0.00 0.00 0.00 78 1017.3
20260906053539 21 347 16.1 27.4 0.00 0.00 0.00 79 1017.3
20260906052518 21 347 14.5 24.1 0.00 0.00 0.00 79 1017.1
20260906051539 20 354 14.5 24.1 0.00 0.00 0.00 80 1017.0
20260906050519 20 10 14.5 24.1 0.00 0.00 0.00 80 1016.9
20260906045519 19 4 14.5 24.1 0.00 0.00 0.00 80 1016.7
20260906044531 19 3 14.5 24.1 0.00 0.00 0.00 80 1016.6
20260906043519 19 6 14.5 24.1 0.00 0.00 0.00 80 1016.5
20260906042543 18 1 14.5 24.1 0.00 0.00 0.00 81 1016.3
20260906041519 18 1 16.1 24.1 0.00 0.00 0.00 82 1016.1
20260906040519 18 9 16.1 24.1 0.00 0.00 0.00 83 1016.1
20260906035519 18 11 14.5 24.1 0.00 0.00 0.00 83 1015.9
20260906034519 18 1 16.1 32.2 0.00 0.00 0.00 82 1015.9
20260906033518 18 352 16.1 27.4 0.00 0.00 0.00 81 1015.8
20260906032603 18 4 14.5 32.2 0.00 0.00 0.00 80 1015.8
20260906031519 18 3 14.5 27.4 0.00 0.00 0.00 79 1015.8
20260906030531 18 6 16.1 27.4 0.00 0.00 0.00 78 1015.6
20260906025519 18 7 14.5 24.1 0.00 0.00 0.00 77 1015.5
20260906024519 18 1 12.9 24.1 0.00 0.00 0.00 76 1015.5
20260906023519 18 346 11.3 17.7 0.00 0.00 0.00 75 1015.5
20260906022519 18 344 9.7 14.5 0.00 0.00 0.00 75 1015.3
20260906021539 18 351 8.0 14.5 0.00 0.00 0.00 74 1015.2
20260906020519 19 11 9.7 14.5 0.00 0.00 0.00 71 1015.2
20260906015519 19 333 6.4 11.3 0.00 0.00 0.00 70 1015.0
20260906014519 18 323 3.2 6.4 0.00 0.00 0.00 75 1014.9
20260906013519 18 158 1.6 6.4 0.00 0.00 0.00 84 1014.9
20260906012539 19 0.0 0.0 0.00 0.00 0.00 86 1014.6
20260906011611 18 0.0 0.0 0.00 0.00 0.00 85 1014.6
20260906010519 18 0.0 0.0 0.00 0.00 0.00 88 1014.7
20260906005519 18 0.0 0.0 0.00 0.00 0.00 89 1014.7
20260906004519 18 0.0 0.0 0.00 0.00 0.00 88 1014.7
20260906003519 19 0.0 0.0 0.00 0.00 0.00 85 1014.9
20260906002519 20 0.0 0.0 0.00 0.00 0.00 82 1014.9
20260906001531 20 0.0 0.0 0.00 0.00 0.00 82 1014.9
20260906000519 20 0.0 0.0 0.00 0.00 0.00 85 1015.0
20260905235519 20 0.0 0.0 0.00 0.00 0.00 87 1015.0
20260905234519 21 158 0.0 3.2 0.00 0.00 0.00 88 1015.0
20260905233539 21 0.0 0.0 0.00 0.00 0.00 87 1015.0
20260905232519 21 158 1.6 6.4 0.00 0.00 0.00 87 1015.1
20260905231539 21 158 0.0 3.2 0.00 0.00 0.00 87 1015.2
20260905230519 22 160 3.2 6.4 0.00 0.00 0.00 87 1015.2
20260905225531 22 166 4.8 11.3 0.00 0.00 0.00 89 1015.3
20260905224518 21 179 3.2 6.4 0.00 0.00 0.00 89 1015.4
20260905223539 21 180 0.0 3.2 0.00 0.00 0.00 90 1015.6
20260905222539 21 0.0 0.0 0.00 0.00 0.00 88 1015.7
20260905221531 21 180 1.6 3.2 0.00 0.00 0.00 87 1015.7
20260905220539 22 180 1.6 6.4 0.00 0.00 0.00 85 1015.8
20260905215519 22 180 3.2 6.4 0.00 0.00 0.00 84 1015.8
20260905214519 22 180 4.8 6.4 0.00 0.00 0.00 82 1015.8
20260905213519 22 182 6.4 11.3 0.00 0.00 0.00 80 1015.9
20260905212519 22 184 8.0 11.3 0.00 0.00 0.00 80 1015.9
20260905211519 22 182 6.4 11.3 0.00 0.00 0.00 81 1015.9
20260905210542 22 187 6.4 11.3 0.00 0.00 0.00 83 1015.9
20260905205519 22 194 6.4 11.3 0.00 0.00 0.00 87 1015.8
20260905204543 22 187 4.8 11.3 0.00 0.00 0.00 88 1015.9
20260905203559 22 189 6.4 11.3 0.00 0.00 0.00 87 1016.0
20260905202519 22 188 6.4 14.5 0.00 0.00 0.00 87 1015.9
20260905201519 22 190 6.4 11.3 0.00 0.00 0.00 87 1016.0
20260905200519 22 196 6.4 11.3 0.00 0.00 0.00 87 1016.0
20260905195519 22 186 6.4 14.5 0.00 0.00 0.00 86 1016.1
20260905194519 22 176 8.0 11.3 0.00 0.00 0.00 85 1016.1
20260905193519 22 168 8.0 14.5 0.00 0.00 0.00 87 1016.1
20260905192519 22 150 4.8 11.3 0.00 0.00 0.00 90 1016.0
20260905191519 22 157 3.2 6.4 0.00 0.00 0.00 90 1016.1
20260905190519 22 154 4.8 6.4 0.00 0.00 0.00 89 1016.1
20260905185519 22 154 3.2 11.3 0.00 0.00 0.00 88 1016.0
20260905184539 22 162 6.4 11.3 0.00 0.00 0.00 87 1016.0
20260905183531 22 157 6.4 11.3 0.00 0.00 0.00 86 1016.0
20260905182603 22 151 4.8 11.3 0.00 0.00 0.00 87 1016.1
20260905181519 22 159 3.2 6.4 0.00 0.00 0.00 87 1016.1
20260905180519 22 154 3.2 11.3 0.00 0.00 0.00 87 1016.1
20260905175519 22 164 3.2 6.4 0.00 0.00 0.00 87 1015.9
20260905174559 22 148 4.8 6.4 0.00 0.00 0.00 87 1015.9
20260905173519 22 173 4.8 6.4 0.00 0.00 0.00 86 1015.9
20260905172519 22 175 3.2 6.4 0.00 0.00 0.00 86 1016.0
20260905171531 22 172 3.2 11.3 0.00 0.00 0.00 86 1015.9
20260905170519 22 166 3.2 6.4 0.00 0.00 0.00 87 1015.9
20260905165519 22 162 3.2 11.3 0.00 0.00 0.00 88 1015.8
20260905164531 22 173 3.2 6.4 0.00 0.00 0.00 87 1015.7
20260905163519 23 165 3.2 6.4 0.00 0.00 0.00 86 1015.7
20260905162519 23 169 3.2 6.4 0.00 0.00 0.00 86 1015.7
20260905161519 23 153 3.2 6.4 0.00 0.00 0.00 85 1015.7
20260905160531 23 160 4.8 11.3 0.00 0.00 0.00 86 1015.7
20260905155519 23 170 4.8 11.3 0.00 0.00 0.00 86 1015.7
20260905154531 23 155 4.8 14.5 0.00 0.00 0.00 85 1015.7
20260905153519 23 149 6.4 11.3 0.00 0.00 0.00 84 1015.8
20260905152519 24 166 8.0 17.7 0.00 0.00 0.00 83 1015.8
20260905151519 25 155 6.4 14.5 0.00 0.00 0.00 81 1015.8
20260905150519 25 160 4.8 11.3 0.00 0.00 0.00 80 1015.9
20260905145519 25 167 8.0 14.5 0.00 0.00 0.00 81 1015.9
20260905144519 25 179 6.4 14.5 0.00 0.00 0.00 80 1015.9
20260905143519 25 169 8.0 17.7 0.00 0.00 0.00 81 1016.0
20260905142531 25 169 8.0 14.5 0.00 0.00 0.00 80 1016.0
20260905141519 25 162 11.3 17.7 0.00 0.00 0.00 80 1016.0
20260905140519 25 170 9.7 24.1 0.00 0.00 0.00 79 1016.1
20260905135519 25 170 8.0 14.5 0.00 0.00 0.00 77 1016.2
20260905134543 26 166 8.0 17.7 0.00 0.00 0.00 77 1016.2
20260905133519 25 164 14.5 32.2 0.00 0.00 0.00 77 1016.3
20260905132519 25 167 9.7 32.2 0.00 0.00 0.00 76 1016.3
20260905131555 26 174 9.7 17.7 0.00 0.00 0.00 74 1016.4
20260905130519 25 168 12.9 24.1 0.00 0.00 0.00 74 1016.5
20260905125519 26 161 9.7 24.1 0.00 0.00 0.00 73 1016.6
20260905124531 26 180 9.7 24.1 0.00 0.00 0.00 72 1016.7
20260905123519 26 174 9.7 24.1 0.00 0.00 0.00 71 1016.8
20260905122519 26 169 9.7 27.4 0.00 0.00 0.00 68 1016.8
20260905121520 26 185 8.0 24.1 0.00 0.00 0.00 72 1017.0
20260905120519 26 170 8.0 24.1 0.00 0.00 0.00 75 1017.1
20260905115519 25 154 8.0 17.7 0.00 0.00 0.00 77 1017.2
20260905114539 26 168 8.0 24.1 0.00 0.00 0.00 76 1017.3
20260905113519 25 127 4.8 14.5 0.00 0.05 0.00 76 1017.4
20260905112519 25 144 8.0 27.4 0.00 0.20 0.00 76 1017.5
20260905111519 25 194 8.0 14.5 0.00 0.20 0.00 73 1017.6
20260905110520 25 168 9.7 27.4 0.00 0.20 0.00 71 1017.6
20260905105519 25 183 12.9 24.1 0.00 0.20 0.00 71 1017.6
20260905104531 25 155 8.0 17.7 0.00 0.20 0.00 73 1017.6
20260905103555 25 146 9.7 24.1 0.00 0.20 0.00 73 1017.7
20260905102531 26 128 6.4 14.5 0.00 0.20 0.00 70 1017.7
20260905101519 26 146 6.4 14.5 0.00 0.20 0.00 65 1017.8
20260905100533 26 122 6.4 14.5 0.00 0.20 0.00 67 1017.8
20260905095519 26 171 6.4 17.7 0.00 0.20 0.00 64 1017.8
20260905094531 26 187 6.4 14.5 0.00 0.20 0.00 63 1017.9
20260905093539 26 192 6.4 14.5 0.00 0.20 0.00 67 1017.9
20260905092539 26 196 8.0 14.5 0.00 0.20 0.00 65 1017.9
20260905091519 26 134 6.4 17.7 0.00 0.20 0.00 66 1018.0
20260905090519 26 122 6.4 17.7 0.00 0.20 0.00 60 1018.1
20260905085519 27 163 6.4 14.5 0.00 0.20 0.00 52 1018.1
20260905084519 27 129 0.0 11.3 0.00 0.20 0.00 52 1018.0
20260905083519 26 128 4.8 14.5 0.00 0.20 0.00 53 1018.1
20260905082519 27 0.0 0.0 0.00 0.20 0.00 54 1018.0
20260905081531 27 0.0 0.0 0.00 0.20 0.00 52 1018.0
20260905080519 27 126 1.6 11.3 0.00 0.20 0.00 54 1018.0
20260905075519 27 0.0 0.0 0.00 0.20 0.00 51 1018.0
20260905074551 27 0.0 0.0 0.00 0.20 0.00 55 1017.9